Location: Aranbee
(34.0885°N, 118.2342°W)
Time: 11:44:47
(UTC+00:00)

S-56A Canister/Altair - Pass Details

Date: 02 August 2021
Orbit: 632 x 2500 km, 38.9° (Epoch: 18 September)

Event Time Altitude Azimuth Distance (km) Brightness Sun altitude
Rises 03:03:32 0° 290° (WNW) 6,130 15.3 -2.7°
Reaches altitude 10° 03:07:30 10° 290° (WNW) 5,162 13.8 -3.5°
Maximum altitude 03:22:50 87° 204° (SSW) 2,312 9.9 -6.4°
Drops below altitude 10° 03:34:59 10° 116° (ESE) 4,203 10.6 -8.6°
Enters shadow 03:35:05 10° 116° (ESE) 4,228 10.6 -8.6°
